OBJECT A, 63428

Orbit data source: Space-Track

You're viewing an Uncataloged Satellite

Recently launched and/or uncataloged satellites may have evolving metadata. Metadata may include but not limited to: Owner, Maufacturer, Bus, Motor, and Mission.

OBJECT A, 63428 is a satellite owned by Zhongguo Xingwang (CN) in LEO that was launched on Tue, 01 Apr 2025 UTC via a CHANG ZHENG 2D launch vehicle from the Jiuquan Satellite Launch Center, China (JSC). Unknown objects in Earth's orbit typically refer to objects detected orbiting the Earth but have not yet been identified or cataloged. These objects could be anything from previously untracked satellites, spent rocket stages, debris from satellite collisions, or even natural meteoroids temporarily captured by Earth's gravity.

Loading next visibility...
Identifier
63428, 2025-067A
Orbit
LEO
Last TLE update
10 hours ago
Origin
Manufacturer
Yinhe
Mission
Operational Civil Communications
Bus & Motor
Unknown
Mass
~300 kg wet, ~300 kg dry
Launch date (UTC)
2025-04-01 (3 months ago)
Launch vehicle
CHANG ZHENG 2D
Launch site
Jiuquan Satellite Launch Center, China (JSC)
Object type
Unknown
Shape & HBR
Box + 2 Pan, 2.5 m
Radar Cross Section
2.320 m², Large (>1 m²)

Expand to show TLE details & history

TLE from 10 hours ago
0 OBJECT A
1 63428U 25067A   25189.91285655  .00050897  00000-0  84411-3 0  9999
2 63428  54.9920 120.3686 0007163 116.9030 243.2736 15.51671696 15276
Epoch: 2025-07-08T21:54Z
TLE epoch observation values (Epoch: 2025-07-08T21:54:30.805Z)
Latitude
-0.00009°
Longitude
-135.36085°
Altitude
415.14 km
Speed
7.662 km/s
True Right ascension
08h 01m 28s
True Declination
0° 00' 00"
Sunlit
Object was in daylight at epoch
Visualization orbit readout
Latitude
48.2437°
Longitude
-85.91007°
Altitude
414.384 km
Speed
7.67 km/s
Apparent Right ascension
09h 23m 38s
Apparent Declination
6° 38' 58"
Sunlit
Object is in daylight
Visualization observer readout
Local Sidereal Time
19:37:22
Azimuth
326.013° NNW
Elevation
-37.38°
Doppler factor
1
Orbital elements
Apogee altitude
416.672 km
Perigee altitude
406.944 km
Semi-major axis
6,789.945 km
Eccentricity
0.00072
Inclination
54.992°
RAAN
120.3686°
Arg. of periapsis
116.903°
True anomaly
Unknown
Mean anomaly
243.2736°
Eccentric anomaly
Unknown
Mean motion
3.87921 °/min
Orbital period
92.8 mins
BSTAR
0.00084411
Loading maneuver chart data...
Loading SW <> Apogee altitude chart data...
Loading historical data...
Loading historical data...
Loading historical data...
Loading historical data...
Loading historical data...
Loading historical data...
Loading historical data...
Other satellites on launch #67 in the year 2025 (2025-04-01 UTC)

OBJECT A Visibility forecast

Observer location: undefined°, undefined°

Span
Click to sort rows by Start time (UTC) header in descending order
Start Az.
Max El. time (UTC)
Max El. Az.
Max El.
End time (UTC)
End Az.
4 mins2025-07-09 21:15:52.354Z186.711° SSW2025-07-09 21:17:52.354Z130.212° SE28.616°2025-07-09 21:19:52.354Z74.06° E
4 mins2025-07-09 22:52:52.354Z290.478° WNW2025-07-09 22:53:52.354Z315.818° NNW21.417°2025-07-09 22:56:52.354Z22.584° NE
4 mins2025-07-10 05:21:52.354Z290.943° WNW2025-07-10 05:23:52.354Z199.929° SSW35.377°2025-07-10 05:25:52.354Z155.475° SSE
|